Hourly Data Report for June 01, 2021

WINNIPEG THE FORKS
MANITOBA
Current Station Operator: ECCC - MSC

49°53'18.008" N
97°07'46.007" W
230.00 m
5023262
71579
XWN

Download Data

Hourly Data (June 2021)
Hourly Data Report for June 1, 2021
TIME
LST
Temp Definition
°C
Dew Point Definition
°C
Rel Hum Definition
%
Precip. Amount Definition
mm

Wind Dir Definition
10's deg

Wind Spd Definition
km/h
Visibility Definition
km
Stn Press Definition
kPa
Hmdx Definition


Wind Chill Definition


Weather Definition


00:00 17.3 1.5 35 0.0 20 1   99.01     LegendNANA
01:00 16.5 2.6 39 0.0   0   99.00     LegendNANA
02:00 14.9 3.5 46 0.0   0   98.98     LegendNANA
03:00 13.2 3.6 52 0.0 23 1   98.94     LegendNANA
04:00 12.1 3.9 57 0.0   0   98.94     LegendNANA
05:00 12.0 3.6 56 0.0   0   98.93     LegendNANA
06:00 12.6 3.4 53 0.0   0   98.92     LegendNANA
07:00 14.9 1.5 40 0.0 20 2   98.89     LegendNANA
08:00 18.1 2.9 36 0.0 22 2   98.86     LegendNANA
09:00 22.3 5.1 33 0.0 23 7   98.81     LegendNANA
10:00 24.9 5.7 29 0.0 21 7   98.77     LegendNANA
11:00 26.2 3.7 23 0.0 21 3   98.70 25   LegendNANA
12:00 27.9 1.9 19 0.0 23 3   98.65 26   LegendNANA
13:00 28.3 0.8 17 0.0 24 4   98.59 26   LegendNANA
14:00 27.4 0.6 18 0.0 20 2   98.53 25   LegendNANA
15:00 26.0 3.2 23 0.0 21 6   98.55 25   LegendNANA
16:00 21.6 8.7 44 0.0 13 3   98.62     LegendNANA
17:00 22.3 7.6 39 0.0 19 2   98.57     LegendNANA
18:00 22.0 8.2 41 0.0 24 5   98.66     LegendNANA
19:00 19.8 9.7 52 0.0 20 9   98.54     LegendNANA
20:00 19.2 10.0 55 0.0 19 6   98.51     LegendNANA
21:00 19.4 8.1 48 0.0 20 7   98.48     LegendNANA
22:00 19.0 7.4 47 0.0 19 2   98.47     LegendNANA
23:00 19.4 6.4 43 0.0 21 7   98.46     LegendNANA

Notes on Data Quality.

Legend

  • E = Estimated
  • M = Missing
  • NA = Not Available*
  • [empty] = Indicates an unobserved value
Date modified: